RH
45 44 38 26 25 32 32 28 37 40 42 47 51 45 42 44 44 42 43 41 43 44 42 44 46 46 45 45 45 46 50 53 62 64 61 64 64 64 65 68 65 64 65
36 44 44 37 26 21 26 31 39 42 39 38 40 46 47 46 46 48 45 49 48 49 47 47 47 48 48 49 48 49 55 54 62 74 77 71 68 65 70 72 73 68 68
30 30 29 26 26 22 18 20 24 30 39 39 38 38 41 44 48 53 60 58 59 58 58 60 55 52 48 48 54 55 59 68 69 71 78 79 75 73 72 73 75 77 77
23 20 20 18 18 22 20 17 15 15 16 19 21 21 20 23 28 38 52 62 71 65 61 62 58 52 51 48 52 54 64 64 72 80 74 74 80 85 83 79 82 89 92
21 18 17 19 17 15 17 16 14 12 12 12 13 12 12 12 13 14 15 17 24 30 40 58 57 44 34 37 50 55 54 67 76 71 84 83 80 84 86 84 83 92 100
16 17 18 17 15 14 13 13 12 12 12 13 13 14 15 14 14 14 14 14 15 18 23 26 28 34 38 40 41 43 46 50 62 68 73 81 86 86 88 84 86 98 99
20 18 17 17 18 18 17 16 17 19 20 20 20 19 20 22 24 24 25 25 24 24 28 30 33 36 41 44 46 47 48 47 49 56 65 73 76 81 86 88 93 87 90
33 34 30 29 27 28 27 26 25 24 23 21 20 19 19 19 19 20 21 21 19 20 24 26 26 27 28 29 32 39 48 58 63 66 67 70 83 82 80 80 84 89 94
40 37 37 35 34 32 30 28 26 24 22 20 19 18 17 16 16 16 17 18 20 23 25 27 28 29 30 32 33 34 35 36 42 49 54 59 63 71 87 97 93 99 98
43 42 40 38 34 32 29 27 24 22 20 19 18 18 18 20 24 28 31 32 34 36 37 37 38 38 38 39 40 40 41 42 42 42 44 45 47 49 53 62 72 86 99
44 41 38 35 32 30 30 30 30 29 28 29 29 30 30 30 32 34 35 37 37 38 38 40 41 42 43 44 45 45 49 53 53 52 50 50 51 52 50 47 47 51 61
44 44 44 48 50 47 44 41 39 36 34 34 34 35 35 34 34 34 32 33 36 37 38 28 25 31 30 28 27 33 37 47 51 51 54 57 66 67 60 56 63 58 66
58 56 52 49 45 40 36 36 39 37 36 36 36 32 30 30 30 30 30 27 17 14 17 20 23 22 19 24 29 32 34 36 42 46 49 60 65 68 71 76 65 65 96
54 51 48 47 48 48 46 48 45 42 44 38 28 25 23 20 17 14 13 14 19 23 26 21 20 23 33 44 42 43 48 52 50 56 58 64 72 70 85 76 76 77 98
49 52 63 71 72 71 66 65 57 53 45 31 30 26 20 15 12 13 20 26 31 28 20 28 31 39 47 49 55 57 61 61 61 50 54 57 71 92 84 91 99 100 91
72 75 79 84 87 86 78 75 65 56 40 36 34 26 21 26 30 26 29 38 31 29 36 44 49 50 46 46 51 56 63 64 61 66 79 82 98 94 86 99 98 99 98
79 80 81 85 92 86 84 76 68 63 48 43 40 36 32 35 35 35 38 34 34 48 51 54 55 54 54 52 54 57 60 63 64 70 74 78 89 96 95 96 94 87 80
84 84 90 95 99 95 88 79 70 69 58 48 46 48 45 44 44 38 34 34 44 56 61 61 58 58 54 45 33 15 11 8 7 6 6 6 8 13 15 12 11 9 6
87 94 97 100 97 94 89 73 72 74 62 52 52 54 49 46 41 38 40 48 56 66 64 61 59 39 16 12 9 7 6 7 7 5 4 3 2 2 2 2 2 2 2
91 98 100 97 87 82 76 70 66 60 58 60 52 52 49 48 50 54 57 59 63 62 63 32 15 13 11 9 7 7 8 9 8 7 5 4 3 2 2 2 2 2 2
98 99 97 89 82 76 70 65 65 70 66 58 49 55 54 61 61 60 61 59 52 28 18 14 13 12 10 8 7 8 9 11 13 11 8 5 3 2 2 2 2 2 2
95 97 85 78 76 76 72 74 82 83 74 63 61 66 69 65 63 52 32 28 23 15 14 14 14 12 11 9 8 8 10 11 13 14 12 8 4 2 2 2 2 2 3
99 90 81 74 84 84 78 77 84 80 77 67 67 74 69 64 32 29 28 22 16 14 15 15 15 15 15 14 13 13 12 13 14 13 12 8 4 2 2 3 3 4 8
97 82 79 76 77 77 76 76 72 79 79 75 77 73 67 29 30 28 24 18 15 15 16 17 18 18 19 19 19 19 18 16 14 12 12 8 4 3 3 3 4 7 13
98 84 80 76 73 71 69 70 72 73 77 78 76 60 29 30 29 25 21 17 16 16 17 18 19 20 22 24 25 26 24 20 16 12 9 7 4 3 4 4 5 11 18
99 97 79 77 74 71 68 67 68 69 72 72 49 29 30 31 27 25 22 19 17 17 17 18 20 23 26 29 31 30 27 22 15 12 8 6 4 4 4 6 7 12 19
Wind_Speed
25 24 26 27 30 31 32 33 36 34 35 32 31 31 31 30 30 28 27 27 27 28 29 29 29 29 29 28 29 30 31 31 32 33 33 32 32 32 31 31 31 31 28
30 31 33 33 32 33 34 37 34 33 34 35 35 34 33 34 34 33 32 32 32 32 33 32 32 31 33 33 31 31 30 31 33 33 33 35 33 31 30 31 32 32 34
32 36 37 36 37 37 36 36 35 37 37 38 39 39 37 37 37 36 36 35 35 36 36 36 37 36 35 35 35 34 34 35 34 35 34 37 37 34 32 32 32 33 34
32 34 35 34 31 33 36 36 36 36 38 39 41 42 41 41 39 38 39 39 40 41 40 39 39 40 41 41 39 38 37 38 37 37 38 38 38 38 39 36 35 36 36
43 40 38 36 33 32 33 34 34 34 35 37 39 40 40 39 39 39 39 39 41 42 41 43 44 45 44 43 41 41 40 43 43 42 42 41 42 42 42 41 40 40 39
38 38 38 36 33 33 34 33 32 32 32 32 33 35 37 36 37 37 37 34 34 33 35 36 36 37 38 37 38 40 43 45 46 47 45 44 43 43 45 45 44 42 46
35 32 30 29 28 28 27 27 26 25 25 26 27 29 31 33 35 36 37 36 34 33 33 34 34 32 32 32 34 35 36 38 42 44 47 48 50 48 47 47 47 47 48
27 24 23 22 22 21 20 21 20 20 20 21 23 23 23 23 24 26 28 30 31 32 31 31 31 31 32 33 35 37 37 37 37 38 40 42 40 41 44 44 44 46 45
21 20 19 18 17 18 19 20 20 20 21 22 23 23 23 23 24 24 25 26 26 26 26 27 28 30 31 31 32 34 35 37 39 40 41 42 43 41 40 41 40 40 42
20 18 18 17 18 19 20 21 21 22 24 24 25 26 26 26 26 27 28 29 29 30 30 30 30 30 32 33 35 35 36 38 39 40 41 41 41 39 38 38 38 41 39
18 17 17 16 17 18 18 20 21 23 25 25 26 28 28 29 30 31 32 32 32 32 31 31 31 32 34 35 36 36 39 40 41 43 45 44 43 40 36 34 35 35 36
16 16 16 15 15 16 17 19 21 24 25 25 27 28 28 29 29 29 28 29 29 29 28 27 28 29 28 29 31 32 35 35 34 36 37 38 40 40 36 33 34 36 33
15 13 13 14 16 18 19 21 22 24 24 24 24 23 23 23 23 23 24 24 23 22 22 22 23 21 21 25 27 28 30 30 31 30 30 28 28 28 28 32 33 33 31
11 11 14 17 19 20 21 21 21 21 20 19 19 18 20 20 20 18 17 17 18 18 19 19 16 16 21 25 28 28 28 29 31 31 29 25 23 22 24 25 27 29 31
14 15 15 16 19 19 18 17 17 17 17 17 16 16 17 16 15 15 15 15 15 16 16 14 13 16 19 21 22 23 23 23 23 22 24 22 23 22 20 22 24 28 33
13 13 14 16 19 19 18 15 14 15 15 15 14 14 14 13 15 15 14 14 13 12 11 11 11 12 12 12 11 11 13 14 12 16 13 15 13 17 20 22 29 19 19
13 15 16 18 23 19 16 15 15 15 16 14 13 14 14 13 14 15 14 11 10 11 10 9 6 7 5 5 6 6 7 9 11 11 12 11 8 8 10 11 13 14 19
16 15 16 19 20 17 18 19 16 16 16 15 15 16 15 14 13 12 11 9 11 10 5 3 3 1 3 7 9 10 10 10 11 12 13 15 15 17 20 22 24 27 29
15 15 18 19 22 20 19 19 15 14 15 16 16 13 13 12 11 10 9 9 7 5 4 5 5 5 6 6 8 8 10 13 15 17 18 19 20 22 23 24 26 27 28
14 15 17 19 18 19 19 16 14 15 16 15 11 9 10 10 9 8 8 8 8 9 7 6 5 4 4 5 7 10 13 15 17 20 21 22 24 24 24 24 23 23 23
15 14 18 18 20 15 14 13 13 12 12 9 9 12 11 11 11 12 11 9 9 8 6 4 2 2 4 6 8 11 13 16 18 20 22 24 25 25 24 24 22 20 16
16 16 17 19 17 13 13 11 11 11 12 10 12 13 14 14 12 11 10 8 7 6 4 1 2 5 7 9 12 14 16 18 20 21 23 24 25 25 24 22 20 16 11
14 14 13 10 8 8 11 10 10 13 15 13 14 15 16 14 12 9 7 6 5 4 2 1 4 7 9 11 12 14 16 18 20 22 23 24 25 24 23 21 17 14 12
11 10 8 5 3 5 8 10 10 13 14 14 17 17 14 12 9 7 6 6 5 3 2 4 6 8 10 12 13 14 16 18 20 22 23 24 25 24 23 20 18 16 16
9 7 6 4 3 4 5 7 9 12 14 18 17 15 12 10 8 7 5 5 5 4 5 6 7 9 11 13 15 17 18 20 21 22 23 24 24 24 22 20 18 18 19
12 9 6 5 5 5 6 7 10 13 15 14 13 12 11 9 8 6 6 6 7 7 7 8 9 11 13 14 16 18 19 20 20 21 22 23 23 23 21 20 19 20 22
Wind_Direction
232 237 248 237 233 236 244 244 245 243 241 241 246 255 260 260 262 263 266 264 266 269 277 280 283 285 282 284 284 283 283 285 285 282 281 281 280 278 277 277 279 281 279
223 229 237 244 244 240 239 243 246 250 250 249 249 249 256 259 260 261 262 267 273 277 279 281 283 284 284 282 282 284 286 282 279 279 280 279 278 275 276 274 276 279 281
230 234 240 242 241 242 242 244 245 248 251 254 255 255 251 252 256 263 269 271 273 273 276 280 283 282 281 282 282 280 283 282 279 279 276 278 279 279 276 277 276 276 277
234 239 243 248 248 244 246 249 249 246 249 253 258 262 264 264 262 260 259 262 268 273 276 277 279 280 281 280 279 279 280 276 277 278 279 277 278 281 280 276 277 276 274
235 238 242 246 250 250 250 250 252 250 247 248 254 259 262 264 266 265 263 261 260 261 265 269 272 274 275 275 274 274 273 275 275 275 276 277 278 279 281 282 281 280 280
232 235 240 244 248 249 250 251 252 253 254 252 253 256 260 261 262 265 267 264 260 257 258 261 265 269 272 274 274 276 277 277 277 277 275 277 278 278 280 283 283 283 280
235 237 238 239 241 242 244 246 248 249 250 251 252 254 257 259 261 262 267 271 272 272 268 267 269 270 269 270 272 274 274 276 278 278 278 278 277 279 279 280 284 284 284
231 228 227 227 230 233 236 241 242 243 245 246 248 251 253 256 259 261 261 263 265 266 269 271 272 273 273 272 272 273 275 276 276 276 278 280 277 276 277 279 280 282 283
218 215 221 223 226 231 237 241 242 243 245 246 247 248 250 252 254 257 259 262 267 270 271 273 273 273 275 277 280 280 279 278 279 279 279 280 280 279 278 279 279 279 280
210 214 222 228 232 238 241 247 249 249 249 250 253 255 255 256 259 262 265 267 269 271 272 272 274 276 278 279 279 279 280 279 279 280 280 280 280 281 282 281 280 281 279
209 218 226 235 242 248 250 252 253 254 255 255 257 258 259 260 260 259 261 263 265 265 267 270 273 275 277 279 281 283 282 280 280 279 279 280 281 282 283 284 287 282 282
216 224 229 235 242 250 257 262 261 260 260 261 261 261 261 260 260 260 260 260 262 265 267 269 271 273 279 283 285 285 284 282 283 285 286 285 282 279 278 279 277 284 276
212 220 230 243 256 264 269 270 267 263 261 261 261 260 260 261 262 261 261 264 264 264 268 271 273 278 284 284 286 286 287 286 287 290 291 290 286 281 276 271 275 280 276
225 247 261 266 270 273 273 270 267 262 259 258 257 261 265 265 264 261 258 260 262 265 270 268 273 285 292 289 283 284 286 285 286 288 289 293 288 281 280 278 275 277 271
255 261 267 275 278 280 273 270 268 256 250 251 258 265 266 265 262 259 258 259 264 265 265 273 288 289 290 292 288 285 290 289 288 291 287 286 285 284 290 289 276 268 280
256 267 277 282 286 280 273 269 273 251 247 252 261 267 266 260 258 252 256 261 260 265 274 287 287 296 304 304 300 295 303 300 298 299 296 299 299 293 302 280 281 281 275
259 269 275 282 285 278 267 267 269 258 247 250 257 259 253 255 258 256 257 246 257 268 274 284 300 308 317 338 14 26 36 38 29 18 11 1 346 320 307 302 293 291 288
268 275 276 283 279 281 275 269 268 263 247 247 250 251 245 247 251 241 225 239 255 266 268 271 290 45 68 73 65 48 33 15 0 347 337 332 323 312 301 297 297 291 287
267 270 277 280 284 276 268 266 267 250 236 241 248 246 244 232 226 222 224 241 236 174 152 124 114 99 76 44 35 21 6 359 352 343 336 328 320 316 310 302 297 296 293
280 280 281 290 283 273 259 256 238 232 231 235 245 218 205 206 206 199 189 168 149 133 127 120 110 79 50 15 8 1 357 350 346 341 337 334 330 325 319 312 306 298 294
284 283 293 289 283 273 249 230 227 226 219 222 207 191 190 175 170 161 150 145 136 128 126 126 98 30 1 355 348 347 344 342 340 338 336 334 331 327 322 317 312 306 299
277 287 295 289 265 251 229 227 223 223 201 198 183 173 169 163 163 157 147 146 139 141 151 122 360 348 347 344 345 341 337 336 335 334 334 332 331 329 325 321 316 307 289
277 292 300 306 245 235 225 232 232 212 190 181 175 174 167 165 161 157 158 155 163 176 201 306 328 337 336 335 334 331 331 331 331 332 334 336 335 332 329 325 316 298 278
278 289 292 292 255 234 233 232 223 199 191 187 177 173 169 165 163 171 180 184 190 210 258 304 319 324 327 331 329 328 328 329 331 332 334 336 336 333 329 323 314 298 285
270 291 279 269 248 224 206 188 176 173 169 171 173 176 172 172 179 192 200 211 232 256 283 296 310 318 322 325 327 329 331 332 332 332 335 336 336 333 329 321 309 293 283
264 277 270 247 230 210 189 172 171 173 173 177 180 182 185 186 193 209 225 239 253 267 279 293 305 315 322 325 326 329 331 331 331 332 333 334 336 335 330 321 308 294 287